Location: Namasale
(1.5000°N, 32.6167°E)
Time: 01:46:53
(UTC+00:00)

N. Korean satellite - Pass Details

Date: 11 December 2021
Orbit: 447 x 490 km, 97.3° (Epoch: 27 January)

Event Time Altitude Azimuth Distance (km) Brightness Sun altitude
Rises 03:14:58 0° 348° (NNW) 2,447 9.8 -7.0°
Reaches altitude 10° 03:17:19 10° 332° (NNW) 1,585 8.7 -6.4°
Maximum altitude 03:19:56 21° 281° (W) 1,078 7.7 -5.8°
Drops below altitude 10° 03:22:37 10° 230° (SW) 1,609 8.9 -5.2°
Sets 03:25:01 0° 214° (SSW) 2,497 10.1 -4.7°
